Weather History for KCBK - August, 2014

Change the Weather History Date:

Wednesday, August 6, 2014

  Actual Average (KGLD) Record (KGLD)
Temperature  
Mean Temperature 80 °F 75 °F  
Max Temperature 95 °F 89 °F 108 °F (1970)
Min Temperature 66 °F 62 °F 42 °F (1974)
Degree Days  
Heating Degree Days 0 0  
Month to date heating degree days 0  
Since 1 June heating degree days 41  
Since 1 July heating degree days 4  
Cooling Degree Days 16 10  
Month to date cooling degree days 62  
Year to date cooling degree days 616  
Since 1 June cooling degree days 575  
Growing Degree Days 30 (Base 50)    
Moisture  
Dew Point 62 °F    
Average Humidity 63    
Maximum Humidity 94    
Minimum Humidity 30    
Precipitation  
Precipitation 0.00 in 0.11 in 1.71 in (1997)
Month to date precipitation 0.64  
Year to date precipitation 13.84  
Snow  
Snow 0.00 in 0.00 in - ()
Month to date snowfall 0.0  
Since 1 June snowfall 0.0  
Since 1 July snowfall 0.0  
Snow Depth -    
Sea Level Pressure  
Sea Level Pressure 29.99 in    
Wind  
Wind Speed 6 mph (NW)    
Max Wind Speed 14 mph    
Max Gust Speed 17 mph    
Visibility 10 miles    
Events Rain    
T = Trace of Precipitation, MM = Missing Value Source: NWS Daily Summary

Daily Weather History Graph

Daily Weather History Graph

Search for Another Location

Airport or City:

Trip Planner

Search our weather history database for the weather conditions in past years. The results will help you decide how hot, cold, wet, or windy it might be!

Date:

Astronomy

Aug. 06, 2014 Rise Set
Actual Time 6:48 AM CDT 8:50 PM CDT
Civil Twilight 6:19 AM CDT 9:20 PM CDT
Nautical Twilight 5:42 AM CDT 9:56 PM CDT
Astronomical Twilight 5:03 AM CDT 10:35 PM CDT
Moon 5:09 PM CDT (8/6) 2:25 AM CDT (8/6)
Length of Visible Light 15h 01m
Length of Day
14h 02m
Waxing Gibbous, 78% of the Moon is Illuminated
Aug 6
Waxing Gibbous
Aug 10
Full
Aug 17
Last Quarter
Aug 25
New
Sep 2
First Quarter

Hourly Weather History & Observations

Time (CDT) Temp. Heat Index Dew Point Humidity Pressure Visibility Wind Dir Wind Speed Gust Speed Precip Events Conditions
12:15 AM 71.6 °F - 64.4 °F 78% 30.02 in 10.0 mi SSW 6.9 mph - N/A   Scattered Clouds
12:35 AM 71.6 °F - 62.6 °F 73% 30.01 in 10.0 mi SSW 8.1 mph - N/A   Clear
12:55 AM 71.6 °F - 60.8 °F 69% 30.01 in 10.0 mi SSW 6.9 mph - N/A   Clear
1:15 AM 71.6 °F - 60.8 °F 69% 30.01 in 10.0 mi Calm Calm - N/A   Clear
1:35 AM 71.6 °F - 60.8 °F 69% 30.02 in 10.0 mi SE 4.6 mph - N/A   Mostly Cloudy
1:55 AM 69.8 °F - 62.6 °F 78% 30.02 in 10.0 mi WNW 4.6 mph - N/A   Mostly Cloudy
2:10 AM 69.8 °F - 62.6 °F 78% 30.02 in 10.0 mi SE 4.6 mph - N/A   Scattered Clouds
2:35 AM 68.0 °F - 62.6 °F 83% 30.01 in 10.0 mi South 4.6 mph - N/A   Clear
2:55 AM 69.8 °F - 62.6 °F 78% 30.00 in 10.0 mi SSW 5.8 mph - N/A   Clear
3:15 AM 69.8 °F - 62.6 °F 78% 30.00 in 10.0 mi Calm Calm - N/A   Clear
3:35 AM 68.0 °F - 64.4 °F 88% 29.99 in 10.0 mi Calm Calm - N/A Rain Light Rain
3:55 AM 68.0 °F - 64.4 °F 88% 29.98 in 10.0 mi Calm Calm - N/A   Scattered Clouds
4:15 AM 68.0 °F - 64.4 °F 88% 29.99 in 10.0 mi Calm Calm - N/A   Scattered Clouds
4:35 AM 68.0 °F - 64.4 °F 88% 29.98 in 10.0 mi Calm Calm - N/A   Clear
4:55 AM 66.2 °F - 64.4 °F 94% 29.98 in 10.0 mi SSW 3.5 mph - N/A   Mostly Cloudy
5:15 AM 68.0 °F - 64.4 °F 88% 29.99 in 10.0 mi South 4.6 mph - N/A   Overcast
5:35 AM 68.0 °F - 64.4 °F 88% 29.99 in 10.0 mi SSW 4.6 mph - N/A   Overcast
5:55 AM 68.0 °F - 64.4 °F 88% 29.99 in 10.0 mi SSW 5.8 mph - N/A   Overcast
6:15 AM 66.2 °F - 64.4 °F 94% 29.98 in 10.0 mi SW 5.8 mph - N/A   Mostly Cloudy
6:35 AM 66.2 °F - 64.4 °F 94% 29.99 in 10.0 mi SW 8.1 mph - N/A   Scattered Clouds
6:55 AM 66.2 °F - 62.6 °F 88% 29.98 in 10.0 mi WSW 8.1 mph - N/A   Scattered Clouds
7:15 AM 68.0 °F - 62.6 °F 83% 29.99 in 10.0 mi SW 6.9 mph - N/A   Clear
7:35 AM 68.0 °F - 62.6 °F 83% 29.98 in 10.0 mi WSW 6.9 mph - N/A   Scattered Clouds
7:55 AM 68.0 °F - 62.6 °F 83% 29.99 in 10.0 mi WSW 5.8 mph - N/A   Scattered Clouds
8:15 AM 68.0 °F - 62.6 °F 83% 29.99 in 10.0 mi West 9.2 mph - N/A   Mostly Cloudy
8:35 AM 69.8 °F - 62.6 °F 78% 30.00 in 10.0 mi West 8.1 mph - N/A   Mostly Cloudy
8:55 AM 69.8 °F - 62.6 °F 78% 30.01 in 10.0 mi West 10.4 mph - N/A   Scattered Clouds
9:15 AM 71.6 °F - 62.6 °F 73% 30.01 in 10.0 mi West 9.2 mph 16.1 mph N/A   Clear
9:35 AM 71.6 °F - 64.4 °F 78% 30.01 in 10.0 mi West 6.9 mph - N/A   Clear
9:55 AM 75.2 °F - 64.4 °F 69% 30.01 in 10.0 mi WNW 8.1 mph - N/A   Clear
10:15 AM 77.0 °F - 64.4 °F 65% 30.01 in 10.0 mi WNW 8.1 mph - N/A   Clear
10:35 AM 78.8 °F - 64.4 °F 61% 30.01 in 10.0 mi WNW 9.2 mph - N/A   Clear
10:55 AM 82.4 °F 83.9 °F 64.4 °F 54% 30.01 in 10.0 mi NW 9.2 mph 17.3 mph N/A   Clear
11:15 AM 84.2 °F 85.0 °F 62.6 °F 48% 30.00 in 10.0 mi NW 9.2 mph 17.3 mph N/A   Clear
11:35 AM 86.0 °F 86.6 °F 62.6 °F 45% 30.01 in 10.0 mi NNW 8.1 mph - N/A   Clear
11:55 AM 87.8 °F 89.4 °F 64.4 °F 46% 30.01 in 10.0 mi NNW 9.2 mph - N/A   Clear
12:15 PM 87.8 °F 88.5 °F 62.6 °F 43% 30.01 in 10.0 mi NW 12.7 mph - N/A   Clear
12:35 PM 87.8 °F 87.1 °F 59.0 °F 38% 30.01 in 10.0 mi NNW 9.2 mph - N/A   Clear
12:55 PM 87.8 °F 87.6 °F 60.8 °F 40% 30.01 in 10.0 mi NW 6.9 mph - N/A   Clear
1:15 PM 89.6 °F 89.5 °F 60.8 °F 38% 30.00 in 10.0 mi NW 10.4 mph - N/A   Clear
1:55 PM 89.6 °F 89.5 °F 60.8 °F 38% 29.99 in 10.0 mi North 6.9 mph 16.1 mph N/A   Clear
2:15 PM 91.4 °F 91.4 °F 60.8 °F 36% 29.99 in 10.0 mi WNW 6.9 mph 16.1 mph N/A   Clear
2:35 PM 91.4 °F 90.7 °F 59.0 °F 34% 29.98 in 10.0 mi NNE 3.5 mph - N/A   Clear
2:55 PM 91.4 °F 91.4 °F 60.8 °F 36% 29.98 in 10.0 mi NW 10.4 mph - N/A   Scattered Clouds
3:15 PM 91.4 °F 91.4 °F 60.8 °F 36% 29.98 in 10.0 mi NW 4.6 mph - N/A   Scattered Clouds
3:35 PM 93.2 °F 92.6 °F 59.0 °F 32% 29.97 in 10.0 mi WNW 10.4 mph - N/A   Mostly Cloudy
3:55 PM 93.2 °F 92.6 °F 59.0 °F 32% 29.96 in 10.0 mi WSW 6.9 mph - N/A   Scattered Clouds
4:15 PM 95.0 °F 94.4 °F 59.0 °F 30% 29.96 in 10.0 mi South 3.5 mph - N/A   Mostly Cloudy
4:35 PM 89.6 °F 88.9 °F 59.0 °F 36% 29.96 in 10.0 mi WNW 9.2 mph - N/A   Mostly Cloudy
4:55 PM 78.8 °F - 68.0 °F 69% 29.97 in 5.0 mi NNW 12.7 mph - N/A Rain Light Rain
5:15 PM 87.8 °F 89.4 °F 64.4 °F 46% 29.97 in 10.0 mi North 13.8 mph - N/A   Clear
5:35 PM 87.8 °F 87.6 °F 60.8 °F 40% 29.96 in 10.0 mi North 10.4 mph 16.1 mph N/A   Clear
5:55 PM 89.6 °F 88.9 °F 59.0 °F 36% 29.95 in 10.0 mi NE 6.9 mph - N/A   Clear
6:15 PM 89.6 °F 88.9 °F 59.0 °F 36% 29.95 in 10.0 mi North 4.6 mph - N/A   Clear
6:35 PM 89.6 °F 88.9 °F 59.0 °F 36% 29.95 in 10.0 mi North 4.6 mph - N/A   Clear
6:55 PM 89.6 °F 89.5 °F 60.8 °F 38% 29.95 in 10.0 mi North 4.6 mph - N/A   Clear
7:15 PM 89.6 °F 88.9 °F 59.0 °F 36% 29.95 in 10.0 mi North 4.6 mph - N/A   Clear
7:35 PM 87.8 °F 87.1 °F 59.0 °F 38% 29.95 in 10.0 mi Calm Calm - N/A   Clear
7:55 PM 86.0 °F 86.6 °F 62.6 °F 45% 29.95 in 10.0 mi NE 4.6 mph - N/A   Clear
8:15 PM 82.4 °F 83.4 °F 62.6 °F 51% 29.96 in 10.0 mi East 6.9 mph - N/A   Clear
8:35 PM 80.6 °F 81.8 °F 62.6 °F 54% 29.96 in 10.0 mi East 4.6 mph - N/A   Clear
8:55 PM 78.8 °F - 62.6 °F 57% 29.96 in 10.0 mi East 5.8 mph - N/A   Clear
9:15 PM 77.0 °F - 64.4 °F 65% 29.97 in 7.0 mi ENE 5.8 mph - N/A   Mostly Cloudy
9:30 PM 77.0 °F - 62.6 °F 61% 29.98 in 10.0 mi NE 6.9 mph - N/A   Mostly Cloudy
9:55 PM 77.0 °F - 62.6 °F 61% 29.98 in 10.0 mi NE 5.8 mph - N/A   Scattered Clouds
10:15 PM 73.4 °F - 62.6 °F 69% 29.98 in 10.0 mi East 3.5 mph - N/A   Clear
10:35 PM 73.4 °F - 62.6 °F 69% 29.99 in 10.0 mi NE 3.5 mph - N/A   Clear
10:55 PM 71.6 °F - 62.6 °F 73% 29.99 in 10.0 mi ENE 4.6 mph - N/A   Clear
11:15 PM 71.6 °F - 62.6 °F 73% 30.01 in 10.0 mi NE 5.8 mph - N/A   Clear
11:35 PM 69.8 °F - 62.6 °F 78% 30.02 in 10.0 mi NE 5.8 mph - N/A   Clear
11:55 PM 68.0 °F - 60.8 °F 78% 30.02 in 10.0 mi NE 4.6 mph - N/A   Clear